Lid_Strength_Index
2 1 1 1 1 1 2 2 2 1 1 1 2 2 2 2 2 1 1 1 2 2 2 1 2 2 2 2 2 2 3 3 4 3 1 1 1 1 0 1 1 2 2
2 1 1 2 1 1 1 1 1 1 1 1 2 2 1 3 2 1 1 1 2 2 2 2 2 1 2 2 2 2 2 3 3 4 3 2 2 1 1 2 1 1 3
2 2 2 2 2 1 1 2 1 1 1 1 2 2 2 2 2 1 1 2 2 2 2 2 2 2 2 2 2 2 2 2 2 3 3 2 2 2 2 2 2 2 2
2 2 2 2 1 1 1 1 1 1 1 1 1 2 2 1 1 1 1 1 1 1 1 1 1 1 2 2 2 2 2 2 2 3 3 3 2 2 2 3 3 3 2
2 2 2 1 1 1 1 1 1 1 1 1 1 1 1 1 1 1 1 2 2 2 1 1 1 1 1 2 2 2 2 3 3 3 3 3 3 3 3 3 3 3 2
2 2 2 2 1 1 1 1 1 1 1 2 1 1 1 1 2 3 2 2 2 2 2 2 1 1 2 3 3 3 2 3 3 3 3 4 4 3 3 3 3 4 4
2 2 2 2 2 2 1 1 2 1 2 2 1 2 1 1 3 3 2 1 2 2 2 2 1 1 2 1 2 4 4 4 3 3 4 3 4 3 3 3 3 3 3
2 2 2 2 2 2 2 2 2 1 2 1 1 1 2 1 4 4 3 2 2 2 2 2 2 1 1 2 2 2 2 2 2 2 2 2 2 2 3 3 3 3 3
3 3 2 2 2 2 2 2 2 3 2 1 1 1 2 1 5 6 4 2 3 2 2 2 2 1 3 5 2 2 2 2 2 4 5 5 5 6 4 3 3 3 4
3 2 2 2 2 2 2 3 3 3 3 2 2 2 3 2 6 6 5 2 3 3 2 2 4 3 5 6 3 3 3 3 3 3 3 4 4 3 4 3 2 3 4
2 2 2 2 2 2 2 3 3 3 2 3 3 2 2 3 4 7 8 3 3 3 2 2 2 7 8 8 7 3 3 3 4 5 5 4 3 1 2 2 2 2 3
2 2 2 2 2 2 3 3 3 3 4 3 3 3 3 3 6 7 7 7 4 2 3 2 4 9 9 9 7 8 7 6 4 4 4 3 4 4 4 5 4 4 2
2 2 2 2 2 3 3 4 4 4 4 4 4 3 3 3 5 7 8 7 7 5 3 4 8 9 10 8 8 7 6 4 5 4 5 5 5 5 6 6 5 5 5
3 3 2 2 3 4 4 4 5 5 5 4 5 4 3 4 4 4 4 6 7 6 5 5 6 6 7 7 7 7 6 6 6 6 7 7 5 5 6 6 5 6 6
3 3 3 3 4 6 8 8 5 8 6 5 5 3 3 4 4 6 6 5 5 5 5 4 5 7 8 8 7 7 7 6 6 6 6 7 7 6 7 7 7 5 5
3 3 3 4 5 7 8 10 13 13 13 13 11 6 7 11 13 12 13 12 11 10 5 6 7 7 7 6 6 6 6 5 6 7 7 7 8 8 7 7 7 7 5
3 3 4 5 6 7 7 7 8 10 12 12 13 13 12 12 13 13 14 13 12 9 5 6 6 6 5 5 5 6 6 6 6 7 7 7 7 8 8 8 7 6 5
3 7 3 4 6 7 7 7 7 7 7 7 10 11 13 14 13 13 13 12 7 6 5 5 5 5 6 6 6 6 6 6 6 7 7 7 7 8 8 8 8 8 8
3 2 2 3 5 6 6 7 6 6 6 6 6 9 12 13 13 13 13 5 5 5 5 4 4 4 5 5 6 6 6 6 6 6 6 7 7 8 8 8 8 8 8
3 3 3 3 4 5 5 5 6 6 7 6 6 6 8 9 8 7 6 5 5 5 4 4 4 4 4 4 5 5 6 6 6 6 5 6 6 7 8 8 8 8 8
2 2 4 4 4 4 4 4 5 5 6 6 6 5 8 6 5 5 5 5 5 5 4 4 4 3 3 4 4 4 4 4 5 5 5 5 6 7 7 7 7 7 7
3 3 3 4 4 4 4 4 4 4 4 4 5 5 10 5 6 5 5 4 4 4 4 3 3 3 3 3 3 3 3 3 4 4 4 4 4 5 5 6 6 7 7
2 3 3 3 4 4 4 3 4 4 4 4 4 4 6 5 5 5 4 3 3 2 2 2 3 3 2 2 2 2 2 3 2 2 3 3 4 4 4 4 5 5 6
3 2 3 3 3 3 4 4 4 6 3 3 3 4 4 4 4 4 3 3 3 3 2 2 3 2 2 2 2 2 2 1 2 2 2 3 3 5 4 4 4 4 4
3 2 3 3 3 3 4 3 4 4 3 3 3 3 3 3 3 3 3 3 2 2 3 3 2 2 2 2 1 1 4 10 3 5 2 2 2 3 3 3 3 3 4
2 3 3 3 3 3 3 3 3 3 3 3 3 3 3 3 3 2 2 2 2 2 2 3 2 2 2 2 1 5 12 13 9 12 2 2 3 3 3 3 3 3 4